User: anonymous   Login
Location: San Pelegr�n
(42.1868°N, 0.0079°E)
Time: 11:32:51
(UTC+00:00)
Language:

H-2A R/B - Orbit

View from above orbital plane
View from above orbital plane
View from above satellite
View from above satellite

Ground track
Ground track

The orbit data is extracted from the following two-line orbital elements,

1 36105U 09066B   20059.21571172 0.00000500  00000-0  26701-4 0    06
2 36105  97.2866  64.9304 0026771 152.7357 207.2642 15.14852145    03
Epoch (UTC): 28 February 2020 05:10:37
Eccentricity: 0.0026771
inclination: 97.2866°
perigee height: 503 km
apogee height: 540 km
right ascension of ascending node: 64.9304°
argument of perigee: 152.7357°
revolutions per day: 15.14852145
mean anomaly at epoch: 207.2642°
orbit number at epoch: 0

The dashed part of the orbit path shows where the satellite is in the earth's shadow,  

DLR